| time (UTC) | temp F | wind direction | speed MPH | gust MPH | rain 1hr in | rain 24hr in | rain mn in | humidity % | barometer mb |
| 20260506210036 | 58 | 187 | 0.0 | 3.0 | 0.04 | 0.41 | 0.41 | 74 | 1013.8 |
| 20260506204545 | 60 | 190 | 1.0 | 2.0 | 0.00 | 0.37 | 0.37 | 74 | 1014.3 |
| 20260506203034 | 60 | 196 | 1.0 | 4.0 | 0.00 | 0.37 | 0.37 | 71 | 1014.2 |
| 20260506201547 | 61 | 196 | 2.0 | 7.0 | 0.00 | 0.37 | 0.37 | 70 | 1013.9 |
| 20260506200033 | 61 | 207 | 1.0 | 2.0 | 0.00 | 0.37 | 0.37 | 70 | 1014.0 |
| 20260506194533 | 62 | 232 | 2.0 | 7.0 | 0.00 | 0.37 | 0.37 | 69 | 1014.0 |
| 20260506193036 | 62 | 189 | 0.0 | 5.0 | 0.00 | 0.37 | 0.37 | 69 | 1014.0 |
| 20260506191535 | 62 | 173 | 1.0 | 7.0 | 0.00 | 0.37 | 0.37 | 68 | 1014.2 |
| 20260506190031 | 63 | 190 | 2.0 | 5.0 | 0.00 | 0.37 | 0.37 | 66 | 1014.2 |
| 20260506184530 | 65 | 190 | 2.0 | 9.0 | 0.00 | 0.37 | 0.37 | 64 | 1014.1 |
| 20260506183039 | 64 | 188 | 2.0 | 14.0 | 0.00 | 0.37 | 0.37 | 64 | 1013.6 |
| 20260506181527 | 64 | 180 | 2.0 | 5.0 | 0.00 | 0.37 | 0.37 | 62 | 1013.5 |
| 20260506180024 | 63 | 189 | 2.0 | 5.0 | 0.00 | 0.37 | 0.37 | 66 | 1013.6 |
| 20260506174520 | 62 | 194 | 1.0 | 7.0 | 0.00 | 0.37 | 0.37 | 67 | 1013.6 |
| 20260506173017 | 60 | 182 | 0.0 | 4.0 | 0.00 | 0.37 | 0.37 | 71 | 1013.3 |
| 20260506171515 | 58 | 178 | 3.0 | 8.0 | 0.01 | 0.37 | 0.37 | 70 | 1013.2 |
| 20260506170011 | 56 | 184 | 2.0 | 4.0 | 0.01 | 0.37 | 0.37 | 75 | 1013.5 |
| 20260506164510 | 55 | 161 | 1.0 | 4.0 | 0.02 | 0.37 | 0.37 | 83 | 1013.5 |
| 20260506163013 | 55 | 174 | 1.0 | 6.0 | 0.05 | 0.37 | 0.37 | 83 | 1014.4 |
| 20260506161510 | 55 | 143 | 1.0 | 4.0 | 0.06 | 0.36 | 0.36 | 84 | 1015.2 |
| 20260506160010 | 55 | 184 | 2.0 | 6.0 | 0.23 | 0.36 | 0.36 | 84 | 1015.6 |
| 20260506154508 | 55 | 179 | 2.0 | 4.0 | 0.30 | 0.35 | 0.35 | 83 | 1015.7 |
| 20260506153010 | 55 | 196 | 1.0 | 7.0 | 0.31 | 0.32 | 0.32 | 83 | 1015.3 |
| 20260506151506 | 55 | 196 | 1.0 | 5.0 | 0.30 | 0.30 | 0.30 | 81 | 1014.6 |
| 20260506150101 | 56 | 277 | 2.0 | 6.0 | 0.13 | 0.13 | 0.13 | 77 | 1015.3 |
| 20260506144606 | 57 | 219 | 0.0 | 5.0 | 0.05 | 0.05 | 0.05 | 76 | 1013.7 |
| 20260506143102 | 57 | 190 | 1.0 | 5.0 | 0.01 | 0.01 | 0.01 | 72 | 1014.1 |
| 20260506141554 | 57 | 192 | 1.0 | 9.0 | 0.00 | 0.00 | 0.00 | 71 | 1014.0 |
| 20260506140054 | 58 | 192 | 0.0 | 3.0 | 0.00 | 0.00 | 0.00 | 70 | 1013.9 |
| 20260506134553 | 58 | 209 | 2.0 | 4.0 | 0.00 | 0.00 | 0.00 | 72 | 1013.3 |
| 20260506133052 | 57 | 192 | 1.0 | 3.0 | 0.00 | 0.00 | 0.00 | 72 | 1013.4 |
| 20260506131551 | 57 | 180 | 0.0 | 6.0 | 0.00 | 0.00 | 0.00 | 70 | 1013.3 |
| 20260506130058 | 57 | 182 | 1.0 | 3.0 | 0.00 | 0.00 | 0.00 | 68 | 1014.1 |
| 20260506124549 | 57 | 215 | 1.0 | 5.0 | 0.00 | 0.00 | 0.00 | 68 | 1013.4 |
| 20260506123049 | 57 | 179 | 2.0 | 7.0 | 0.00 | 0.00 | 0.00 | 69 | 1013.2 |
| 20260506121552 | 58 | 170 | 1.0 | 5.0 | 0.00 | 0.00 | 0.00 | 67 | 1013.2 |
| 20260506120046 | 58 | 198 | 1.0 | 3.0 | 0.00 | 0.00 | 0.00 | 66 | 1013.5 |
| 20260506114545 | 58 | 231 | 1.0 | 4.0 | 0.00 | 0.00 | 0.00 | 66 | 1013.2 |
| 20260506113045 | 58 | 178 | 1.0 | 5.0 | 0.00 | 0.00 | 0.00 | 66 | 1013.2 |
| 20260506111544 | 58 | 93 | 1.0 | 6.0 | 0.00 | 0.00 | 0.00 | 66 | 1013.2 |
| 20260506110044 | 58 | 238 | 3.0 | 12.0 | 0.00 | 0.00 | 0.00 | 65 | 1013.3 |
| 20260506104543 | 58 | 223 | 1.0 | 7.0 | 0.00 | 0.00 | 0.00 | 65 | 1012.9 |
| 20260506103049 | 58 | 171 | 1.0 | 9.0 | 0.00 | 0.00 | 0.00 | 65 | 1012.6 |
| 20260506101538 | 58 | 186 | 1.0 | 11.0 | 0.00 | 0.00 | 0.00 | 65 | 1012.2 |
| 20260506100036 | 58 | 192 | 3.0 | 10.0 | 0.00 | 0.00 | 0.00 | 65 | 1012.0 |
| 20260506094536 | 57 | 193 | 1.0 | 5.0 | 0.00 | 0.00 | 0.00 | 65 | 1011.9 |
| 20260506093035 | 57 | 232 | 2.0 | 9.0 | 0.00 | 0.00 | 0.00 | 64 | 1011.8 |
| 20260506091535 | 57 | 227 | 0.0 | 8.0 | 0.00 | 0.00 | 0.00 | 64 | 1011.9 |
| 20260506090044 | 57 | 119 | 2.0 | 11.0 | 0.00 | 0.00 | 0.00 | 63 | 1012.0 |
| 20260506084531 | 57 | 130 | 1.0 | 8.0 | 0.00 | 0.00 | 0.00 | 62 | 1012.3 |
| 20260506083030 | 57 | 236 | 3.0 | 9.0 | 0.00 | 0.00 | 0.00 | 61 | 1012.3 |
| 20260506081534 | 57 | 179 | 0.0 | 3.0 | 0.00 | 0.00 | 0.00 | 60 | 1012.3 |
| 20260506073025 | 57 | 215 | 1.0 | 5.0 | 0.00 | 0.00 | 0.00 | 55 | 1012.8 |
| 20260506071523 | 57 | 182 | 1.0 | 8.0 | 0.00 | 0.00 | 0.00 | 53 | 1013.2 |
| 20260506070121 | 57 | 200 | 2.0 | 9.0 | 0.00 | 0.00 | 0.00 | 51 | 1013.3 |
| 20260506061540 | 57 | 180 | 1.0 | 10.0 | 0.00 | 0.00 | 0.00 | 49 | 1013.9 |
| 20260506044519 | 58 | 247 | 2.0 | 9.0 | 0.00 | 0.00 | 0.00 | 49 | 1013.7 |
| 20260506043019 | 58 | 165 | 3.0 | 9.0 | 0.00 | 0.00 | 0.00 | 50 | 1014.4 |
| 20260506041508 | 58 | 135 | 1.0 | 6.0 | 0.00 | 0.00 | 0.00 | 51 | 1014.2 |
| 20260506040005 | 58 | 154 | 3.0 | 9.0 | 0.00 | 0.00 | 0.00 | 51 | 1014.1 |
| 20260506034505 | 58 | 184 | 2.0 | 4.0 | 0.00 | 0.00 | 0.00 | 51 | 1013.9 |
| 20260506033005 | 58 | 156 | 2.0 | 12.0 | 0.00 | 0.00 | 0.00 | 51 | 1014.0 |
| 20260506031504 | 57 | 196 | 2.0 | 5.0 | 0.00 | 0.00 | 0.00 | 50 | 1014.1 |
| 20260506024503 | 58 | 192 | 3.0 | 10.0 | 0.00 | 0.00 | 0.00 | 50 | 1014.0 |
| 20260506023103 | 57 | 144 | 1.0 | 7.0 | 0.00 | 0.00 | 0.00 | 48 | 1014.3 |
| 20260506021606 | 57 | 195 | 1.0 | 5.0 | 0.00 | 0.00 | 0.00 | 47 | 1014.2 |
| 20260506020059 | 58 | 184 | 0.0 | 8.0 | 0.00 | 0.00 | 0.00 | 46 | 1013.9 |
| 20260506014559 | 58 | 149 | 1.0 | 4.0 | 0.00 | 0.00 | 0.00 | 45 | 1013.9 |
| 20260506013106 | 58 | 229 | 1.0 | 13.0 | 0.00 | 0.00 | 0.00 | 44 | 1014.0 |
| 20260506011606 | 58 | 188 | 0.0 | 6.0 | 0.00 | 0.00 | 0.00 | 44 | 1014.1 |
| 20260506010057 | 58 | 182 | 1.0 | 3.0 | 0.00 | 0.00 | 0.00 | 44 | 1014.1 |
| 20260506004556 | 59 | 196 | 1.0 | 9.0 | 0.00 | 0.00 | 0.00 | 44 | 1013.9 |
| 20260506003056 | 59 | 219 | 1.0 | 4.0 | 0.00 | 0.00 | 0.00 | 42 | 1013.9 |
| 20260506001555 | 59 | 202 | 3.0 | 6.0 | 0.00 | 0.00 | 0.00 | 42 | 1013.7 |
| 20260506000055 | 60 | 200 | 0.0 | 4.0 | 0.00 | 0.00 | 0.00 | 43 | 1013.9 |
| 20260505234606 | 60 | 160 | 1.0 | 3.0 | 0.00 | 0.00 | 0.00 | 42 | 1013.8 |
| 20260505233054 | 61 | 161 | 1.0 | 4.0 | 0.00 | 0.00 | 0.00 | 40 | 1013.7 |
| 20260505231605 | 62 | 154 | 2.0 | 8.0 | 0.00 | 0.00 | 0.00 | 40 | 1013.9 |
| 20260505230054 | 63 | 177 | 2.0 | 8.0 | 0.00 | 0.00 | 0.00 | 39 | 1013.9 |
| 20260505224552 | 62 | 226 | 2.0 | 6.0 | 0.00 | 0.00 | 0.00 | 38 | 1013.7 |
| 20260505223102 | 63 | 169 | 2.0 | 9.0 | 0.00 | 0.00 | 0.00 | 39 | 1014.1 |
| 20260505221557 | 63 | 179 | 2.0 | 5.0 | 0.00 | 0.00 | 0.00 | 38 | 1013.8 |
| 20260505220052 | 63 | 180 | 3.0 | 9.0 | 0.00 | 0.00 | 0.00 | 36 | 1013.9 |
| 20260505214611 | 64 | 173 | 2.0 | 13.0 | 0.00 | 0.00 | 0.00 | 35 | 1013.8 |
| 20260505213051 | 65 | 170 | 2.0 | 6.0 | 0.00 | 0.00 | 0.00 | 33 | 1013.8 |
| 20260505211547 | 66 | 189 | 2.0 | 9.0 | 0.00 | 0.00 | 0.00 | 31 | 1013.6 |